TimeCDT,TemperatureF,Dew PointF,Humidity,Sea Level PressureIn,VisibilityMPH,Wind Direction,Wind SpeedMPH,Gust SpeedMPH,PrecipitationIn,Events,Conditions,WindDirDegrees,DateUTC
12:13 AM,64.4,51.8,64,29.92,10.0,SE,6.9,-,N/A,,Clear,140,2013-07-04 05:13:00
12:34 AM,64.4,51.8,64,29.92,10.0,SE,6.9,-,N/A,,Clear,140,2013-07-04 05:34:00
12:54 AM,66.2,50.0,56,29.92,10.0,SSE,6.9,-,N/A,,Clear,150,2013-07-04 05:54:00
1:13 AM,64.4,51.8,64,29.92,10.0,SSE,6.9,-,N/A,,Clear,150,2013-07-04 06:13:00
1:34 AM,64.4,51.8,64,29.91,10.0,SSE,6.9,-,N/A,,Clear,150,2013-07-04 06:34:00
1:53 AM,64.4,51.8,64,29.91,10.0,SSE,4.6,-,N/A,,Clear,160,2013-07-04 06:53:00
2:14 AM,62.6,51.8,68,29.91,10.0,SSE,4.6,-,N/A,,Clear,160,2013-07-04 07:14:00
2:34 AM,62.6,51.8,68,29.91,10.0,South,3.5,-,N/A,,Clear,170,2013-07-04 07:34:00
2:53 AM,60.8,53.6,77,29.91,10.0,SSE,4.6,-,N/A,,Clear,160,2013-07-04 07:53:00
3:14 AM,60.8,53.6,77,29.90,10.0,SSE,4.6,-,N/A,,Clear,160,2013-07-04 08:14:00
3:34 AM,59.0,53.6,82,29.91,10.0,SSE,4.6,-,N/A,,Clear,150,2013-07-04 08:34:00
3:53 AM,60.8,53.6,77,29.90,10.0,SSE,5.8,-,N/A,,Clear,150,2013-07-04 08:53:00
4:14 AM,59.0,53.6,82,29.90,10.0,SSE,4.6,-,N/A,,Clear,160,2013-07-04 09:14:00
4:34 AM,59.0,53.6,82,29.90,10.0,South,4.6,-,N/A,,Clear,170,2013-07-04 09:34:00
4:53 AM,57.2,53.6,88,29.90,10.0,SSE,5.8,-,N/A,,Clear,160,2013-07-04 09:53:00
5:14 AM,57.2,53.6,88,29.90,10.0,SSE,5.8,-,N/A,,Clear,150,2013-07-04 10:14:00
5:34 AM,59.0,53.6,82,29.90,10.0,South,4.6,-,N/A,,Clear,170,2013-07-04 10:34:00
5:53 AM,59.0,55.4,88,29.90,10.0,South,5.8,-,N/A,,Scattered Clouds,170,2013-07-04 10:53:00
6:14 AM,60.8,55.4,82,29.89,10.0,South,5.8,-,N/A,,Scattered Clouds,180,2013-07-04 11:14:00
6:34 AM,62.6,55.4,77,29.89,10.0,South,6.9,-,N/A,,Clear,180,2013-07-04 11:34:00
6:53 AM,64.4,55.4,73,29.88,10.0,South,6.9,-,N/A,,Scattered Clouds,170,2013-07-04 11:53:00
7:14 AM,66.2,55.4,68,29.88,10.0,South,6.9,-,N/A,,Scattered Clouds,180,2013-07-04 12:14:00
7:34 AM,66.2,57.2,73,29.89,10.0,South,5.8,-,N/A,,Scattered Clouds,180,2013-07-04 12:34:00
7:53 AM,69.8,57.2,64,29.89,10.0,South,6.9,-,N/A,,Scattered Clouds,180,2013-07-04 12:53:00
8:14 AM,69.8,57.2,64,29.89,10.0,South,9.2,-,N/A,,Scattered Clouds,180,2013-07-04 13:14:00
8:34 AM,69.8,55.4,60,29.88,10.0,South,10.4,-,N/A,,Clear,180,2013-07-04 13:34:00
8:53 AM,71.6,57.2,60,29.87,10.0,South,10.4,-,N/A,,Clear,180,2013-07-04 13:53:00
9:13 AM,71.6,57.2,60,29.87,10.0,South,8.1,-,N/A,,Clear,190,2013-07-04 14:13:00
9:34 AM,75.2,57.2,53,29.87,10.0,SSW,10.4,-,N/A,,Clear,200,2013-07-04 14:34:00
9:53 AM,75.2,55.4,50,29.86,10.0,South,11.5,-,N/A,,Clear,190,2013-07-04 14:53:00
10:14 AM,78.8,57.2,47,29.86,10.0,South,11.5,-,N/A,,Clear,190,2013-07-04 15:14:00
10:34 AM,78.8,55.4,44,29.85,10.0,South,12.7,-,N/A,,Clear,180,2013-07-04 15:34:00
10:53 AM,80.6,55.4,42,29.84,10.0,South,13.8,-,N/A,,Clear,190,2013-07-04 15:53:00
11:14 AM,82.4,53.6,37,29.84,10.0,South,15.0,21.9,N/A,,Clear,180,2013-07-04 16:14:00
11:33 AM,82.4,53.6,37,29.84,10.0,SSW,13.8,19.6,N/A,,Clear,200,2013-07-04 16:33:00
11:54 AM,82.4,53.6,37,29.83,10.0,SSW,13.8,21.9,N/A,,Clear,200,2013-07-04 16:54:00
12:14 PM,84.2,51.8,33,29.83,10.0,SSW,17.3,25.3,N/A,,Clear,200,2013-07-04 17:14:00
12:33 PM,84.2,51.8,33,29.82,10.0,South,19.6,24.2,N/A,,Clear,180,2013-07-04 17:33:00
12:54 PM,86.0,53.6,33,29.82,10.0,South,17.3,-,N/A,,Clear,180,2013-07-04 17:54:00
1:13 PM,84.2,51.8,33,29.82,10.0,South,18.4,26.5,N/A,,Clear,170,2013-07-04 18:13:00
1:34 PM,86.0,51.8,31,29.81,10.0,South,16.1,21.9,N/A,,Clear,180,2013-07-04 18:34:00
1:53 PM,86.0,51.8,31,29.82,10.0,SSW,15.0,25.3,N/A,,Clear,210,2013-07-04 18:53:00
2:13 PM,86.0,51.8,31,29.81,10.0,SSW,19.6,27.6,N/A,,Clear,200,2013-07-04 19:13:00
2:34 PM,86.0,51.8,31,29.81,10.0,SSW,19.6,26.5,N/A,,Clear,210,2013-07-04 19:34:00
2:53 PM,86.0,51.8,31,29.81,10.0,SSW,18.4,29.9,N/A,,Clear,200,2013-07-04 19:53:00
3:13 PM,86.0,51.8,31,29.80,10.0,South,18.4,23.0,N/A,,Clear,180,2013-07-04 20:13:00
3:34 PM,87.8,53.6,31,29.80,10.0,SSW,18.4,25.3,N/A,,Clear,210,2013-07-04 20:34:00
3:53 PM,86.0,53.6,33,29.80,10.0,SSW,17.3,27.6,N/A,,Clear,200,2013-07-04 20:53:00
4:13 PM,86.0,53.6,33,29.80,10.0,South,16.1,24.2,N/A,,Clear,190,2013-07-04 21:13:00
4:34 PM,86.0,53.6,33,29.80,10.0,SSW,15.0,23.0,N/A,,Clear,200,2013-07-04 21:34:00
4:53 PM,86.0,55.4,35,29.80,10.0,South,17.3,24.2,N/A,,Clear,190,2013-07-04 21:53:00
5:13 PM,84.2,55.4,37,29.79,10.0,South,16.1,25.3,N/A,,Clear,190,2013-07-04 22:13:00
5:34 PM,86.0,55.4,35,29.79,10.0,South,16.1,23.0,N/A,,Clear,190,2013-07-04 22:34:00
5:53 PM,84.2,55.4,37,29.78,10.0,South,13.8,21.9,N/A,,Clear,190,2013-07-04 22:53:00
6:13 PM,84.2,57.2,40,29.79,10.0,South,11.5,24.2,N/A,,Clear,180,2013-07-04 23:13:00
6:34 PM,84.2,57.2,40,29.78,10.0,South,13.8,21.9,N/A,,Clear,180,2013-07-04 23:34:00
6:53 PM,82.4,57.2,42,29.78,10.0,South,13.8,18.4,N/A,,Clear,190,2013-07-04 23:53:00
7:14 PM,82.4,55.4,39,29.78,10.0,South,15.0,-,N/A,,Clear,180,2013-07-05 00:14:00
7:34 PM,82.4,55.4,39,29.77,10.0,South,16.1,-,N/A,,Clear,180,2013-07-05 00:34:00
7:53 PM,82.4,55.4,39,29.77,10.0,South,16.1,-,N/A,,Clear,180,2013-07-05 00:53:00
8:14 PM,82.4,55.4,39,29.77,10.0,South,13.8,17.3,N/A,,Clear,180,2013-07-05 01:14:00
8:34 PM,80.6,55.4,42,29.77,10.0,South,11.5,-,N/A,,Clear,180,2013-07-05 01:34:00
8:53 PM,80.6,55.4,42,29.77,10.0,South,11.5,-,N/A,,Clear,170,2013-07-05 01:53:00
9:14 PM,78.8,55.4,44,29.78,10.0,South,9.2,-,N/A,,Clear,180,2013-07-05 02:14:00
9:34 PM,77.0,57.2,50,29.78,10.0,South,10.4,-,N/A,,Clear,170,2013-07-05 02:34:00
9:53 PM,77.0,57.2,50,29.79,10.0,South,10.4,-,N/A,,Clear,170,2013-07-05 02:53:00
10:14 PM,77.0,57.2,50,29.79,10.0,South,11.5,-,N/A,,Clear,170,2013-07-05 03:14:00
10:34 PM,77.0,55.4,47,29.80,10.0,South,10.4,-,N/A,,Clear,170,2013-07-05 03:34:00
10:53 PM,75.2,55.4,50,29.80,10.0,South,10.4,-,N/A,,Clear,170,2013-07-05 03:53:00
11:14 PM,75.2,55.4,50,29.80,10.0,South,10.4,-,N/A,,Clear,170,2013-07-05 04:14:00
11:34 PM,77.0,55.4,47,29.80,10.0,South,13.8,19.6,N/A,,Clear,180,2013-07-05 04:34:00
11:53 PM,77.0,55.4,47,29.80,10.0,South,13.8,19.6,N/A,,Clear,180,2013-07-05 04:53:00